C/2017 A1 ( PanSTARRS )

Japanese version
Home page
Updated on March 25, 2017

---------------------------------------------------------------------

* Profile

Discovery Date January 2, 2017
Magnitude 19.6 mag
Discoverer Pan-STARRS 1 telescope (Haleakala)

* Pictures

* Orbital Elements

Epoch 2017 May 7.0 TT = JDT 2457880.5
T 2017 May 17.13258 TT                                  MPCW
q   2.2903213            (2000.0)            P               Q
z  +0.0124945      Peri.    2.04692     -0.53548065     -0.53415972
 +/-0.0000240      Node   121.06833     +0.76360212     -0.63712226
e   0.9713836      Incl.   49.79328     +0.36079395     +0.55565153
From 126 observations 2017 Jan. 2-Mar. 2, mean residual 0".6.

* Magnitudes Graph

        m1 = 12.5 + 5 log d + 10.0 log r

---------------------------------------------------------------------

The orbital elements are published on M.P.E.C. 2017-E59.
The magnitudes graphs are made with Comet for Windows.

---------------------------------------------------------------------

Copyright(C) Seiichi Yoshida (comet@aerith.net). All rights reserved.